Retour au catalogue

STARLINK-4597

ActifCommunicationsVLEO
NORAD 53640·PAYLOAD·🇺🇸 United States

Lancé Aug 28, 2022 depuis Cape Canaveral Space Force Station

Loading…

Prochains Passages (prochaines 24 heures)

TLE

FraisSource: CelesTrak SupGP

Époque: Sep 14, 2026, 21:11 UTC

1 53640C 22104BE  26257.88312500  .00015912  00000+0  47025-3 0  2571
2 53640  53.1590  87.9017 0001088 127.3199 335.8708 15.34374922    19

Suivez STARLINK-4597 en temps réel avec AllMySat

Download on the App Store